Location: Bastogne Gables
(35.1554°N, 78.9900°W)
Time: 02:51:32
(UTC+00:00)

COSMO-SKYMED 1 - Pass Details

Date: 29 October 2020
Orbit: 621 x 623 km, 97.9° (Epoch: 26 November)

Event Time Altitude Azimuth Distance (km) Brightness Sun altitude
Rises 23:33:36 0° 7° (N) 2,906 5.9 -14.8°
Reaches altitude 10° 23:35:49 10° 3° (N) 1,996 5.1 -15.2°
Maximum altitude 23:40:04 57° 285° (WNW) 731 3.2 -16.1°
Drops below altitude 10° 23:44:18 10° 207° (SSW) 1,982 5.6 -17.0°
Sets 23:46:30 0° 203° (SSW) 2,884 6.4 -17.4°
